Regional Weather Roundup
Issued by NWS

Home | Current Version | Previous Version | Graphics & Text | Print | Product List | Glossary On
Versions: 1 2 3 4 5 6 7 8 9 10 11 12 13 14 15 16 17 18 19 20 21 22 23 24 25 26 27 28 29 30 31 32 33 34 35 36 37 38 39 40 41 42 43 44 45 46 47 48 49 50
000
ASUS45 KPSR 182310
RWRAZ

ARIZONA REGIONAL HOURLY WEATHER ROUNDUP
NATIONAL WEATHER SERVICE PHOENIX AZ
400 PM MST SAT APR 18 2015

NOTE: FAIR INDICATES FEW OR NO CLOUDS BELOW 12,000 FEET WITH NO
SIGNIFICANT WEATHER AND/OR OBSTRUCTIONS TO VISIBILITY.

AZZ001>003-036-190000-
NORTHWEST ARIZONA

CITY           SKY/WX    TMP DP  RH WIND       PRES   REMARKS
BULLHEAD CITY  SUNNY     90  14   6 E3        29.80F
KINGMAN        SUNNY     81  14   8 W12       29.93F
$$

AZZ004>008-015-016-018-190000-
NORTH CENTRAL ARIZONA

CITY           SKY/WX    TMP DP  RH WIND       PRES   REMARKS
GRAND CANYON   SUNNY     64  12  13 NW12G20   30.05F
WILLIAMS       SUNNY     63  12  14 N18       30.12F
PRESCOTT       MOSUNNY   73  17  12 W16G25    29.98F
FLAGSTAFF      SUNNY     62  10  13 NW10G18   30.06F
PAYSON         MOSUNNY   72  18  13 SW14G24   30.00F
PAGE           MOSUNNY   75  20  12 W7        29.89F
$$

AZZ009>014-017-190000-
NORTHEAST ARIZONA

CITY           SKY/WX    TMP DP  RH WIND       PRES   REMARKS
WINSLOW        SUNNY     73  19  13 NW17G24   29.96F
SAINT JOHNS    PTSUNNY   66  20  17 W23G35    29.97F
WINDOW ROCK    SUNNY     61  12  14 NW17G33   30.01F
SHOW LOW       MOSUNNY   63  14  15 NW16G26   30.03F
$$

AZZ023-190000-
GREATER PHOENIX AREA

CITY           SKY/WX    TMP DP  RH WIND       PRES   REMARKS
PHOENIX        MOSUNNY   89  17   7 W15       29.82F
BUCKEYE        SUNNY     88  16   7 W9        29.83F
GLENDALE       MOSUNNY   90  12   5 SW7       29.83F
LUKE AFB       SUNNY     89  18   7 SW8       29.81F
DEER VALLEY    SUNNY     85  15   7 S12       29.83F
SCOTTSDALE     SUNNY     86  16   7 W10       29.86F
MESA-FALCON    SUNNY     86  10   6 W14       29.85F
MESA-GATEWAY   MOSUNNY   84  19   9 W7        29.87F
CHANDLER       MOSUNNY   86  16   7 W15       29.84F
$$

AZZ027-028-190000-
SOUTHWEST MARICOPA COUNTY AND PINAL COUNTY

CITY           SKY/WX    TMP DP  RH WIND       PRES   REMARKS
CASA GRANDE    SUNNY     86  25  10 W13G18    29.85F
GILA BEND      FAIR      90  14   6 W14G20    29.82F
$$

AZZ503-504-507>509-190000-
SOUTHEAST ARIZONA

CITY           SKY/WX    TMP DP  RH WIND       PRES   REMARKS
TUCSON         SUNNY     81  14   8 NW13G18   29.94F
RYAN FIELD       N/A     82  19   9 NW10      29.93F
NOGALES        SUNNY     76  18  11 NW10G17   29.98F
SIERRA VISTA   SUNNY     72  14  11 NW17G30   30.01F
DOUGLAS        SUNNY     74  20  13 NW13G26   29.97F
SAFFORD        SUNNY     80  19  10 NW21G30   29.87F
$$

AZZ020-021-025-026-031-190000-
SOUTHWEST ARIZONA

CITY           SKY/WX    TMP DP  RH WIND       PRES   REMARKS
YUMA           SUNNY     91  19   7 SW7       29.83F
$$

CAZ031-033-041-043-047-048-061-190000-
SOUTHERN CALIFORNIA

CITY           SKY/WX    TMP DP  RH WIND       PRES   REMARKS
DOWNTOWN L.A.  SUNNY     75  43  31 W8        29.93F
L.A. AIRPORT   SUNNY     67  55  65 W10       29.95F
SAN DIEGO      SUNNY     74  46  36 NW8       29.96F
BURBANK        SUNNY     79  32  18 S10       29.92F
ONTARIO        SUNNY     83  33  16 W13G21    29.92F
RIVERSIDE      SUNNY     83  29  14 W14G22    29.91F
PALM SPRINGS   SUNNY     96  16   5 NW7G18    29.81F
EL CENTRO NAS  SUNNY     92  16   6 VRB5      29.80F
IMPERIAL       SUNNY     93  23   8 VRB7      29.80F
BLYTHE         SUNNY     93  17   6 VRB5      29.80F
NEEDLES        SUNNY     92  11   5 E6        29.80F
$$

NVZ020-UTZ003-190000-
SOUTHERN NEVADA-UTAH

CITY           SKY/WX    TMP DP  RH WIND       PRES   REMARKS
LAS VEGAS      MOSUNNY   85  14   7 S7        29.82F
SALT LAKE CITY MOSUNNY   66  31  27 NW10      29.98F
$$

NMZ009-TXZ055-190000-
NEW MEXICO-WEST TEXAS

CITY           SKY/WX    TMP DP  RH WIND       PRES   REMARKS
ALBUQUERQUE    PTSUNNY   62  22  21 N21G26    29.90F
EL PASO        MOSUNNY   76  19  11 NW21G31   29.87F
$$


........................KEY........................
SKY/WX - SKY CONDITION/WEATHER
TMP    - TEMPERATURE IN FAHRENHEIT
DP     - DEW POINT IN FAHRENHEIT
RH     - RELATIVE HUMIDITY IN PERCENT
WIND   - DIRECTION AND SPEED IN MILES PER HOUR (MPH)
VRB    - VARIABLE WIND DIRECTION
PRES   - MEAN SEA LEVEL PRESSURE IN INCHES OF MERCURY
         F - FALLING PRESSURE   R - RISING PRESSURE
         S - STEADY PRESSURE
VSB    - VISIBILITY IN MILES
HX     - HEAT INDEX IN FAHRENHEIT
WCI    - WIND CHILL INDEX IN FAHRENHEIT
TC     - TEMPERATURE IN CELSIUS WHICH IS ALSO KNOWN AS
         TEMPERATURE IN CENTIGRADE
AFB    - AIR FORCE BASE
         LUKE AFB IS LUKE AIR FORCE BASE
         DAVIS-MONTHAN IS DAVIS-MONTHAN AIR FORCE BASE
NAS    - NAVAL AIR STATION
         EL CENTRO NAS IS EL CENTRO NAVAL AIR STATION
N/A    - NOT AVAILABLE




USA.gov is the U.S. government's official web portal to all federal, state and local government web resources and services.